Madison, MN

9:43 AM CST on December 13, 2019 (GMT -0600)
Madison-Lac Qui Parle County

Weather History for KDXX - September, 2019

Change the Weather History Date:

Monday, September 16, 2019

  Actual Average (WUND) Record (WUND)
Temperature  
Mean Temperature 76 °F -  
Max Temperature 87 °F - - (-1)
Min Temperature 64 °F - - (-1)
Cooling Degree Days 10    
Growing Degree Days 26 (Base 50)    
Moisture  
Dew Point 69 °F    
Average Humidity 81    
Maximum Humidity 100    
Minimum Humidity 58    
Precipitation  
Precipitation 0.00 in - - ()
Sea Level Pressure  
Sea Level Pressure 29.90 in    
Wind  
Wind Speed 8 mph (SSE)    
Max Wind Speed 16 mph    
Max Gust Speed 22 mph    
Visibility 10 miles    
Events      
Averages and records for this station are not official NWS values.
T = Trace of Precipitation, MM = Missing Value Source: NWS Daily Summary

Daily Weather History Graph

Daily Weather History Graph

Search for Another Location

Airport or City:

Astronomy

Sep. 16, 2019 Rise Set
Actual Time 7:04 AM CDT 7:34 PM CDT
Civil Twilight 6:34 AM CDT 8:03 PM CDT
Nautical Twilight 6:00 AM CDT 8:38 PM CDT
Astronomical Twilight 5:23 AM CDT 9:14 PM CDT
Moon 9:03 PM CDT (9/16) 9:16 AM CDT (9/16)
Length of Visible Light 13h 28m
Length of Day
12h 29m
Waning Gibbous, 94% of the Moon is Illuminated
Sep 16
Waning Gibbous
Sep 21
Last Quarter
Sep 28
New
Oct 5
First Quarter
Oct 13
Full

Hourly Weather History & Observations

Time (CDT) Temp. Heat Index Dew Point Humidity Pressure Visibility Wind Dir Wind Speed Gust Speed Precip Events Conditions
12:15 AM 64.4 °F - 62.6 °F 94% 29.95 in 10.0 mi SE 4.6 mph - N/A   Clear
12:19 AM 64.4 °F - 62.6 °F 94% 29.95 in 10.0 mi SE 3.5 mph - N/A   Clear
12:38 AM 64.4 °F - 62.6 °F 94% 29.95 in 10.0 mi SE 4.6 mph - N/A   Clear
12:55 AM 64.4 °F - 62.6 °F 94% 29.95 in 10.0 mi SE 6.9 mph - N/A   Clear
1:15 AM 64.4 °F - 62.6 °F 94% 29.95 in 10.0 mi SE 5.8 mph - N/A   Clear
1:16 AM 64.4 °F - 62.6 °F 94% 29.95 in 10.0 mi SE 5.8 mph - N/A   Clear
1:35 AM 64.4 °F - 62.6 °F 94% 29.95 in 10.0 mi SE 5.8 mph - N/A   Clear
1:57 AM 64.4 °F - 64.4 °F 100% 29.95 in 10.0 mi SE 4.6 mph - N/A   Clear
2:16 AM 64.4 °F - 62.6 °F 94% 29.95 in 10.0 mi SE 5.8 mph - N/A   Clear
2:36 AM 64.4 °F - 62.6 °F 94% 29.95 in 10.0 mi SSE 5.8 mph - N/A   Clear
2:55 AM 64.4 °F - 62.6 °F 94% 29.95 in 10.0 mi SSE 4.6 mph - N/A   Clear
2:56 AM 64.4 °F - 62.6 °F 94% 29.95 in 10.0 mi SSE 4.6 mph - N/A   Clear
3:19 AM 64.4 °F - 62.6 °F 94% 29.95 in 10.0 mi SE 5.8 mph - N/A   Clear
3:36 AM 64.4 °F - 64.4 °F 100% 29.94 in 10.0 mi SSE 8.1 mph - N/A   Clear
3:56 AM 66.2 °F - 64.4 °F 94% 29.94 in 10.0 mi SE 8.1 mph - N/A   Clear
4:15 AM 66.2 °F - 64.4 °F 94% 29.94 in 10.0 mi SE 6.9 mph - N/A   Clear
4:16 AM 66.2 °F - 64.4 °F 94% 29.94 in 10.0 mi SSE 6.9 mph - N/A   Clear
4:35 AM 66.2 °F - 64.4 °F 94% 29.94 in 10.0 mi SE 8.1 mph - N/A   Clear
4:39 AM 66.2 °F - 64.4 °F 94% 29.93 in 10.0 mi SE 8.1 mph - N/A   Clear
4:58 AM 66.2 °F - 64.4 °F 94% 29.94 in 10.0 mi SE 8.1 mph - N/A   Clear
5:15 AM 66.2 °F - 64.4 °F 94% 29.93 in 10.0 mi SE 6.9 mph - N/A   Clear
5:35 AM 66.2 °F - 64.4 °F 94% 29.93 in 10.0 mi SSE 6.9 mph - N/A   Clear
5:36 AM 66.2 °F - 64.4 °F 94% 29.93 in 10.0 mi SSE 6.9 mph - N/A   Clear
5:55 AM 66.2 °F - 64.4 °F 94% 29.93 in 10.0 mi SE 6.9 mph - N/A   Clear
6:18 AM 66.2 °F - 64.4 °F 94% 29.93 in 10.0 mi SE 6.9 mph - N/A   Clear
6:36 AM 66.2 °F - 64.4 °F 94% 29.93 in 10.0 mi SE 8.1 mph - N/A   Clear
6:55 AM 66.2 °F - 64.4 °F 94% 29.93 in 10.0 mi SSE 8.1 mph - N/A   Clear
7:15 AM 66.2 °F - 64.4 °F 94% 29.93 in 10.0 mi SSE 8.1 mph - N/A   Clear
7:16 AM 66.2 °F - 64.4 °F 94% 29.93 in 10.0 mi SSE 8.1 mph - N/A   Clear
7:35 AM 68.0 °F - 66.2 °F 94% 29.93 in 10.0 mi SSE 6.9 mph - N/A   Clear
7:57 AM 68.0 °F - 66.2 °F 94% 29.93 in 10.0 mi SSE 9.2 mph - N/A   Clear
8:15 AM 69.8 °F - 66.2 °F 88% 29.93 in 10.0 mi SSE 6.9 mph - N/A   Clear
8:35 AM 69.8 °F - 68.0 °F 94% 29.93 in 10.0 mi SSE 8.1 mph - N/A   Clear
8:36 AM 69.8 °F - 68.0 °F 94% 29.93 in 10.0 mi SSE 8.1 mph - N/A   Clear
8:55 AM 71.6 °F - 68.0 °F 88% 29.93 in 10.0 mi SSE 8.1 mph - N/A   Clear
9:19 AM 73.4 °F - 69.8 °F 88% 29.92 in 10.0 mi SSE 9.2 mph - N/A   Clear
9:36 AM 73.4 °F - 71.6 °F 94% 29.92 in 10.0 mi SSE 8.1 mph - N/A   Clear
9:56 AM 73.4 °F - 71.6 °F 94% 29.92 in 10.0 mi SSE 9.2 mph - N/A   Clear
10:15 AM 75.2 °F - 71.6 °F 89% 29.91 in 10.0 mi SSE 6.9 mph - N/A   Clear
10:16 AM 75.2 °F - 71.6 °F 89% 29.91 in 10.0 mi SSE 6.9 mph - N/A   Clear
10:39 AM 78.8 °F - 71.6 °F 78% 29.91 in 10.0 mi SSE 10.4 mph - N/A   Clear
10:58 AM 80.6 °F 84.6 °F 71.6 °F 74% 29.91 in 10.0 mi SSE 9.2 mph 16.1 mph N/A   Clear
11:15 AM 80.6 °F 84.6 °F 71.6 °F 74% 29.90 in 10.0 mi SSE 10.4 mph - N/A   Clear
11:35 AM 82.4 °F 87.2 °F 71.6 °F 70% 29.90 in 10.0 mi South 10.4 mph - N/A   Clear
11:36 AM 82.4 °F 87.2 °F 71.6 °F 70% 29.90 in 10.0 mi SSE 13.8 mph - N/A   Clear
11:55 AM 82.4 °F 87.2 °F 71.6 °F 70% 29.90 in 10.0 mi South 13.8 mph 18.4 mph N/A   Clear
12:18 PM 82.4 °F 88.2 °F 73.4 °F 74% 29.90 in 10.0 mi SSE 10.4 mph 16.1 mph N/A   Clear
12:36 PM 82.4 °F 88.2 °F 73.4 °F 74% 29.89 in 10.0 mi SSE 10.4 mph 16.1 mph N/A   Clear
12:55 PM 84.2 °F 89.6 °F 71.6 °F 66% 29.89 in 10.0 mi South 10.4 mph - N/A   Clear
12:56 PM 84.2 °F 89.6 °F 71.6 °F 66% 29.89 in 10.0 mi South 11.5 mph - N/A   Clear
1:15 PM 86.0 °F 91.8 °F 71.6 °F 62% 29.89 in 10.0 mi South 13.8 mph 19.6 mph N/A   Clear
1:16 PM 86.0 °F 91.8 °F 71.6 °F 62% 29.89 in 10.0 mi South 15.0 mph 19.6 mph N/A   Clear
1:35 PM 86.0 °F 93.4 °F 73.4 °F 66% 29.89 in 10.0 mi SSE 10.4 mph - N/A   Clear
1:40 PM 87.8 °F 95.6 °F 73.4 °F 62% 29.88 in 10.0 mi SSE 11.5 mph - N/A   Clear
1:57 PM 86.0 °F 93.4 °F 73.4 °F 66% 29.88 in 10.0 mi SSE 12.7 mph 16.1 mph N/A   Clear
2:16 PM 87.8 °F 95.6 °F 73.4 °F 62% 29.88 in 10.0 mi SSE 15.0 mph - N/A   Clear
2:35 PM 87.8 °F 93.8 °F 71.6 °F 58% 29.88 in 10.0 mi SSE 13.8 mph 20.7 mph N/A   Clear
2:55 PM 87.8 °F 95.6 °F 73.4 °F 62% 29.88 in 10.0 mi SSE 13.8 mph 21.9 mph N/A   Clear
2:56 PM 87.8 °F 95.6 °F 73.4 °F 62% 29.88 in 10.0 mi South 12.7 mph 21.9 mph N/A   Clear
3:37 PM 87.8 °F 95.6 °F 73.4 °F 62% 29.88 in 10.0 mi SSE 16.1 mph 20.7 mph N/A   Clear
3:56 PM 87.8 °F 95.6 °F 73.4 °F 62% 29.87 in 10.0 mi South 10.4 mph 18.4 mph N/A   Clear
4:15 PM 86.0 °F 91.8 °F 71.6 °F 62% 29.87 in 10.0 mi SSE 13.8 mph 21.9 mph N/A   Clear
4:16 PM 86.0 °F 91.8 °F 71.6 °F 62% 29.87 in 10.0 mi SSE 11.5 mph 21.9 mph N/A   Clear
4:35 PM 86.0 °F 91.8 °F 71.6 °F 62% 29.87 in 10.0 mi SSE 12.7 mph 19.6 mph N/A   Clear
4:57 PM 84.2 °F 89.6 °F 71.6 °F 66% 29.87 in 10.0 mi SSE 13.8 mph - N/A   Clear
5:16 PM 84.2 °F 89.6 °F 71.6 °F 66% 29.87 in 10.0 mi SSE 10.4 mph - N/A   Clear
5:35 PM 84.2 °F 89.6 °F 71.6 °F 66% 29.87 in 10.0 mi SSE 9.2 mph - N/A   Clear
5:36 PM 84.2 °F 89.6 °F 71.6 °F 66% 29.87 in 10.0 mi SSE 9.2 mph - N/A   Clear
5:55 PM 86.0 °F 91.8 °F 71.6 °F 62% 29.87 in 10.0 mi South 12.7 mph 17.3 mph N/A   Clear
5:56 PM 86.0 °F 91.8 °F 71.6 °F 62% 29.87 in 10.0 mi South 11.5 mph 17.3 mph N/A   Clear
6:19 PM 84.2 °F 89.6 °F 71.6 °F 66% 29.88 in 10.0 mi South 11.5 mph 17.3 mph N/A   Clear
6:36 PM 82.4 °F 87.2 °F 71.6 °F 70% 29.88 in 10.0 mi South 9.2 mph - N/A   Clear
6:56 PM 82.4 °F 87.2 °F 71.6 °F 70% 29.87 in 10.0 mi SSE 8.1 mph - N/A   Clear
7:15 PM 80.6 °F 84.6 °F 71.6 °F 74% 29.88 in 10.0 mi SSE 8.1 mph - N/A   Clear
7:16 PM 80.6 °F 84.6 °F 71.6 °F 74% 29.87 in 10.0 mi SSE 8.1 mph - N/A   Clear
7:35 PM 78.8 °F - 71.6 °F 78% 29.88 in 10.0 mi SSE 8.1 mph - N/A   Clear
7:58 PM 78.8 °F - 71.6 °F 78% 29.88 in 10.0 mi SSE 6.9 mph - N/A   Clear
8:15 PM 78.8 °F - 71.6 °F 78% 29.88 in 10.0 mi SSE 8.1 mph - N/A   Clear
8:35 PM 78.8 °F - 71.6 °F 78% 29.88 in 10.0 mi SSE 9.2 mph - N/A   Clear
8:36 PM 78.8 °F - 71.6 °F 78% 29.88 in 10.0 mi SSE 9.2 mph - N/A   Clear
8:55 PM 78.8 °F - 71.6 °F 78% 29.88 in 10.0 mi SSE 9.2 mph - N/A   Clear
8:56 PM 78.8 °F - 71.6 °F 78% 29.88 in 10.0 mi SSE 9.2 mph - N/A   Clear
9:18 PM 78.8 °F - 71.6 °F 78% 29.88 in 10.0 mi SSE 9.2 mph - N/A   Clear
9:37 PM 77.0 °F - 71.6 °F 83% 29.88 in 10.0 mi SSE 9.2 mph - N/A   Clear
9:56 PM 77.0 °F - 71.6 °F 83% 29.88 in 10.0 mi SSE 8.1 mph - N/A   Clear
10:16 PM 77.0 °F - 71.6 °F 83% 29.88 in 10.0 mi SSE 10.4 mph - N/A   Clear
10:35 PM 77.0 °F - 71.6 °F 83% 29.88 in 10.0 mi SSE 9.2 mph - N/A   Clear
10:39 PM 77.0 °F - 71.6 °F 83% 29.88 in 10.0 mi SSE 9.2 mph - N/A   Clear
10:57 PM 77.0 °F - 71.6 °F 83% 29.88 in 10.0 mi SSE 9.2 mph - N/A   Clear
11:16 PM 77.0 °F - 71.6 °F 83% 29.88 in 10.0 mi SSE 8.1 mph - N/A   Clear
11:35 PM 77.0 °F - 71.6 °F 83% 29.87 in 10.0 mi SSE 9.2 mph - N/A   Clear
11:36 PM 77.0 °F - 71.6 °F 83% 29.87 in 10.0 mi SSE 9.2 mph - N/A   Clear
11:55 PM 77.0 °F - 71.6 °F 83% 29.87 in 10.0 mi SSE 8.1 mph - N/A   Clear
11:56 PM 77.0 °F - 71.6 °F 83% 29.87 in 10.0 mi SSE 8.1 mph - N/A   Clear